Casper, WY

9:44 PM MST on February 08, 2016 (GMT -0700)
Casper Mountain Foothills | | Change Station
CLOSE
Current Station
Personal Weather Station
Location: Casper, WY
Elevation: 5334 ft
Nearby Weather Stations

Elev 5334 ft 42.83 °N, 106.31 °W | Updated 4 minutes ago

Clear
Clear
38.9 °F
Feels Like 39 °F
N
1.0
Wind Variable Wind from West
Gusts 1.0 mph

Today
High -- | Low -- °F
--% Chance of Precip.
Yesterday
High -- | Low -- °F
Precip. -- in
Pressure 30.44 in
Visibility 10.0 miles
Clouds Clear
Windchill 39 °F
Dew Point 19 °F
Humidity 44%
Rainfall 0.00 in
Snow Depth Not available.
7:12 AM 5:27 PM
New Moon, 0% visible
METAR KCPR 090353Z AUTO 23015KT 10SM CLR 01/M06 A3036 RMK AO2 SLP308 T00061061
Pressure 30.44 in
Visibility 10.0 miles
Clouds Clear
Windchill 39 °F
Dew Point 19 °F
Humidity 44%
Rainfall 0.00 in
Snow Depth Not available.
7:12 AM 5:27 PM
New Moon, 0% visible
METAR KCPR 090353Z AUTO 23015KT 10SM CLR 01/M06 A3036 RMK AO2 SLP308 T00061061

10-Day Weather Forecast

Almanac

Astronomy

Feb. 08, 2016 Rise Set
Actual Time
Civil Twilight
Nautical Twilight
Astronomical Twilight
Moon
Length of Visible Light
Length of Day
Tomorrow will be .
, % of the Moon is Illuminated

Today's Extremes

State Highs State Lows

Community

WunderPhotos

Upload Photos

1,891,549 photos uploaded!

WunderBlog® & News

Nearby

Air Quality

  Air Quality AQ Index Pollutant
Not available.

Snow Depth

Station Depth Elevation

Earthquake Activity

City Distance Mag. Time & Date
Minimum magnitude displayed is 2.5.

Coastal Water Temperatures

Place Temperature

Stations

Nearby Weather Stations

Station Location Temp. Windchill Dew Point Humidity Wind Precip. Elev Updated Type
                   

Watches & Warnings

There are currently no watches in effect.